LA5NNA Weather Reports


Display with metric or nautical units.
time (UTC)temp
F
wind
direction
speed
MPH
gust
MPH
rain 1hr
in
rain 24hr
in
rain mn
in
humidity
%
barometer
mb
20260506164007 49 296 19.0 28.0 0.00 0.00 0.00 59 1010.9
20260506163507 49 298 18.0 24.0 0.00 0.00 0.00 59 1011.0
20260506163011 49 300 18.0 25.0 0.00 0.00 0.00 59 1011.0
20260506162507 49 299 18.0 25.0 0.00 0.00 0.00 59 1011.0
20260506161507 49 304 20.0 28.0 0.00 0.00 0.00 59 1011.0
20260506161007 49 294 20.0 29.0 0.00 0.00 0.00 59 1011.0
20260506160507 49 307 17.0 31.0 0.00 0.00 0.00 59 1011.0
20260506160010 49 304 20.0 30.0 0.00 0.00 0.00 59 1011.1
20260506155507 49 298 20.0 26.0 0.00 0.00 0.00 60 1010.9
20260506155007 50 301 22.0 26.0 0.00 0.00 0.00 60 1011.1
20260506154007 50 299 18.0 26.0 0.00 0.00 0.00 60 1011.0
20260506153507 50 298 20.0 29.0 0.00 0.00 0.00 60 1011.1
20260506153011 50 300 18.0 28.0 0.00 0.00 0.00 59 1011.0
20260506152507 50 302 18.0 25.0 0.00 0.00 0.00 61 1011.0
20260506152007 50 293 19.0 25.0 0.00 0.00 0.00 60 1010.9
20260506151507 50 303 18.0 28.0 0.00 0.00 0.00 61 1011.1
20260506151006 50 299 20.0 26.0 0.00 0.00 0.00 61 1011.0
20260506150506 50 300 17.0 23.0 0.00 0.00 0.00 62 1011.1
20260506150010 50 290 17.0 24.0 0.00 0.00 0.00 62 1011.0
20260506145506 50 283 15.0 23.0 0.00 0.00 0.00 63 1011.1
20260506144507 50 284 14.0 25.0 0.00 0.00 0.00 63 1011.2
20260506144007 50 284 16.0 28.0 0.00 0.00 0.00 63 1011.2
20260506143506 50 282 14.0 23.0 0.00 0.00 0.00 62 1011.2
20260506143011 50 287 17.0 23.0 0.00 0.00 0.00 62 1011.3
20260506142507 50 289 17.0 24.0 0.00 0.00 0.00 62 1011.3
20260506142007 50 288 16.0 25.0 0.00 0.00 0.00 62 1011.4
20260506141506 51 280 16.0 26.0 0.00 0.00 0.00 62 1011.3
20260506141007 51 293 20.0 26.0 0.00 0.00 0.00 62 1011.3
20260506140507 51 291 18.0 25.0 0.00 0.00 0.00 63 1011.4
20260506140010 50 284 14.0 23.0 0.00 0.00 0.00 63 1011.5
20260506135506 50 296 16.0 25.0 0.00 0.00 0.00 64 1011.5
20260506135007 50 280 14.0 23.0 0.00 0.00 0.00 64 1011.4
20260506134507 50 281 15.0 25.0 0.00 0.00 0.00 64 1011.5
20260506133506 50 271 15.0 23.0 0.00 0.00 0.00 65 1011.5
20260506133011 50 271 16.0 28.0 0.00 0.00 0.00 65 1011.5
20260506132006 50 267 16.0 23.0 0.00 0.00 0.00 65 1011.6
20260506131006 50 264 16.0 23.0 0.00 0.00 0.00 65 1011.7
20260506130507 50 262 14.0 28.0 0.00 0.00 0.00 65 1011.7
20260506130010 50 269 15.0 23.0 0.00 0.00 0.00 65 1011.7
20260506125506 50 271 17.0 23.0 0.00 0.00 0.00 66 1011.7
20260506125322 50 273 14.0 21.0 0.00 0.00 0.00 66 1011.7
20260506124506 50 267 16.0 24.0 0.00 0.00 0.00 66 1011.8
20260506124006 50 275 17.0 25.0 0.00 0.00 0.00 67 1011.8
20260506123506 50 271 15.0 22.0 0.00 0.00 0.00 67 1011.8
20260506123011 50 269 14.0 22.0 0.00 0.00 0.00 67 1011.8
20260506122506 50 262 14.0 24.0 0.00 0.00 0.00 67 1011.9
20260506122006 50 270 16.0 25.0 0.00 0.00 0.00 66 1011.8
20260506121506 50 272 17.0 26.0 0.00 0.00 0.00 67 1011.8
20260506121006 50 261 14.0 22.0 0.00 0.00 0.00 67 1011.8
20260506120010 50 259 14.0 22.0 0.00 0.00 0.00 66 1012.0
20260506115506 50 264 15.0 23.0 0.00 0.00 0.00 66 1012.1
20260506115006 50 261 15.0 22.0 0.00 0.00 0.00 66 1012.2
20260506114507 50 264 16.0 24.0 0.00 0.00 0.00 66 1012.1
20260506114007 49 262 16.0 24.0 0.00 0.00 0.00 66 1012.1
20260506113506 49 261 15.0 23.0 0.00 0.00 0.00 66 1012.0
20260506112506 49 264 16.0 23.0 0.00 0.00 0.00 65 1012.1
20260506112006 49 270 17.0 24.0 0.00 0.00 0.00 65 1012.0
20260506111506 49 273 16.0 23.0 0.00 0.00 0.00 65 1012.1
20260506111006 49 270 16.0 23.0 0.00 0.00 0.00 65 1012.1
20260506110506 49 267 16.0 24.0 0.00 0.00 0.00 64 1012.1
20260506110010 49 269 14.0 22.0 0.00 0.00 0.00 64 1012.2
20260506105506 49 261 13.0 22.0 0.00 0.00 0.00 64 1012.4
20260506105006 49 262 14.0 20.0 0.00 0.00 0.00 64 1012.2
20260506104007 49 262 13.0 21.0 0.00 0.00 0.00 62 1012.4
20260506103506 49 263 14.0 21.0 0.00 0.00 0.00 62 1012.4
20260506102507 49 263 12.0 20.0 0.00 0.00 0.00 62 1012.5
20260506102006 49 265 12.0 18.0 0.00 0.00 0.00 62 1012.5
20260506101506 49 262 12.0 20.0 0.00 0.00 0.00 60 1012.5
20260506101006 49 260 10.0 18.0 0.00 0.00 0.00 61 1012.6
20260506100009 48 263 10.0 16.0 0.00 0.00 0.00 61 1012.6
20260506095506 48 268 10.0 16.0 0.00 0.00 0.00 60 1012.6
20260506095006 48 262 10.0 15.0 0.00 0.00 0.00 60 1012.6
20260506094506 48 255 9.0 16.0 0.00 0.00 0.00 60 1012.6
20260506093507 47 256 8.0 14.0 0.00 0.00 0.00 59 1012.7
20260506093010 47 261 9.0 14.0 0.00 0.00 0.00 59 1012.7
20260506092506 47 256 6.0 13.0 0.00 0.00 0.00 57 1012.6
20260506092006 47 233 5.0 9.0 0.00 0.00 0.00 57 1012.7
20260506091506 47 209 5.0 12.0 0.00 0.00 0.00 57 1012.7
20260506091006 47 194 7.0 13.0 0.00 0.00 0.00 58 1012.7
20260506090506 47 220 3.0 12.0 0.00 0.00 0.00 58 1012.7
20260506090009 47 260 6.0 12.0 0.00 0.00 0.00 58 1012.7
20260506085506 47 245 4.0 9.0 0.00 0.00 0.00 58 1012.7
20260506085007 47 278 5.0 12.0 0.00 0.00 0.00 58 1012.7
20260506084006 47 266 8.0 13.0 0.00 0.00 0.00 59 1012.7
20260506083010 46 260 6.0 12.0 0.00 0.00 0.00 59 1012.7
20260506082506 46 272 6.0 9.0 0.00 0.00 0.00 59 1012.7
20260506082006 46 270 6.0 9.0 0.00 0.00 0.00 60 1012.7
20260506081506 45 261 5.0 9.0 0.00 0.00 0.00 61 1012.7
20260506081006 45 280 5.0 9.0 0.00 0.00 0.00 61 1012.7
20260506080506 45 269 4.0 9.0 0.00 0.00 0.00 61 1012.6
20260506073509 43 308 5.0 7.0 0.00 0.00 0.00 63 1012.7
20260506072508 42 321 3.0 7.0 0.00 0.00 0.00 63 1012.7
20260506072008 42 328 2.0 8.0 0.00 0.00 0.00 64 1012.7
20260506071508 42 6 3.0 8.0 0.00 0.00 0.00 64 1012.8
20260506071008 41 7 3.0 8.0 0.00 0.00 0.00 64 1012.8
20260506070508 41 339 3.0 8.0 0.00 0.00 0.00 65 1012.7
20260506062008 39 25 3.0 7.0 0.00 0.00 0.00 67 1012.8
20260506061508 39 5 2.0 6.0 0.00 0.00 0.00 67 1012.7
20260506061008 39 355 4.0 8.0 0.00 0.00 0.00 67 1012.7
20260506060509 39 328 2.0 7.0 0.00 0.00 0.00 67 1012.8
20260506050509 39 32 2.0 5.0 0.00 0.00 0.00 67 1013.0
20260506045008 39 13 3.0 6.0 0.00 0.00 0.00 67 1012.8
20260506044508 38 39 3.0 6.0 0.00 0.00 0.00 66 1012.9
20260506044008 38 58 2.0 3.0 0.00 0.00 0.00 66 1012.9
20260506043508 39 52 2.0 3.0 0.00 0.00 0.00 66 1012.9
20260506042008 39 45 2.0 5.0 0.00 0.00 0.00 66 1012.9
20260506041508 39 54 2.0 5.0 0.00 0.00 0.00 66 1012.9
20260506041008 39 51 2.0 3.0 0.00 0.00 0.00 66 1012.9
20260506040508 39 66 2.0 5.0 0.00 0.00 0.00 66 1012.8
20260506040012 39 68 3.0 5.0 0.00 0.00 0.00 66 1012.8
20260506035508 39 52 2.0 3.0 0.00 0.00 0.00 66 1012.8
20260506035008 39 26 2.0 5.0 0.00 0.00 0.00 66 1012.8
20260506034508 39 61 2.0 3.0 0.00 0.00 0.00 66 1012.7
20260506034008 39 47 2.0 3.0 0.00 0.00 0.00 66 1012.7
20260506033508 39 61 2.0 6.0 0.00 0.00 0.00 66 1012.6
20260506033012 39 45 2.0 5.0 0.00 0.00 0.00 66 1012.7
20260506032008 40 47 2.0 3.0 0.00 0.00 0.00 66 1012.7
20260506031508 40 51 2.0 5.0 0.00 0.00 0.00 66 1012.6
20260506031008 40 42 3.0 5.0 0.00 0.00 0.00 66 1012.5
20260506030508 40 38 2.0 5.0 0.00 0.00 0.00 66 1012.5
20260506030011 40 43 3.0 5.0 0.00 0.00 0.00 66 1012.6
20260506025509 40 21 3.0 5.0 0.00 0.00 0.00 66 1012.8
20260506025008 40 21 3.0 5.0 0.00 0.00 0.00 66 1012.7
20260506024508 40 11 3.0 3.0 0.00 0.00 0.00 66 1012.6
20260506024008 40 33 3.0 3.0 0.00 0.00 0.00 66 1012.8
20260506023508 40 73 2.0 3.0 0.00 0.00 0.00 65 1012.8
20260506022508 40 302 2.0 3.0 0.00 0.00 0.00 65 1012.7
20260506022008 41 69 2.0 3.0 0.00 0.00 0.00 65 1012.8
20260506021508 41 80 2.0 3.0 0.00 0.00 0.00 65 1012.8
20260506021008 41 32 1.0 5.0 0.00 0.00 0.00 65 1012.7
20260506020508 41 333 3.0 5.0 0.00 0.00 0.00 65 1012.6
20260506020011 41 309 2.0 7.0 0.00 0.00 0.00 65 1012.6
20260506015508 40 324 5.0 8.0 0.00 0.00 0.00 65 1012.6
20260506015008 41 320 6.0 8.0 0.00 0.00 0.00 65 1012.6
20260506014508 41 318 5.0 8.0 0.00 0.00 0.00 65 1012.5
20260506013508 41 316 6.0 8.0 0.00 0.00 0.00 65 1012.7
20260506013011 41 317 6.0 9.0 0.00 0.00 0.00 65 1012.6
20260506012508 41 318 6.0 9.0 0.00 0.00 0.00 64 1012.6
20260506012008 41 321 6.0 10.0 0.00 0.00 0.00 64 1012.6
20260506011508 41 317 5.0 7.0 0.00 0.00 0.00 64 1012.6
20260506011008 41 344 2.0 6.0 0.00 0.00 0.00 64 1012.5
20260506010508 41 337 3.0 6.0 0.00 0.00 0.00 64 1012.6
20260506010011 41 323 3.0 6.0 0.00 0.00 0.00 64 1012.6
20260506005508 41 329 2.0 5.0 0.00 0.00 0.00 64 1012.6
20260506005007 41 293 1.0 5.0 0.00 0.00 0.00 64 1012.6
20260506004508 41 346 2.0 8.0 0.00 0.00 0.00 63 1012.5
20260506004008 41 336 2.0 7.0 0.00 0.00 0.00 63 1012.5
20260506003508 41 345 1.0 7.0 0.00 0.00 0.00 63 1012.6
20260506002508 42 325 3.0 8.0 0.00 0.00 0.00 63 1012.5
20260506001508 42 335 1.0 3.0 0.00 0.00 0.00 63 1012.4
20260506001008 42 343 2.0 6.0 0.00 0.00 0.00 63 1012.4
20260506000508 42 315 2.0 6.0 0.00 0.00 0.00 63 1012.5
20260506000011 41 15 2.0 3.0 0.00 0.00 0.00 62 1012.3
20260505235508 41 27 2.0 6.0 0.00 0.00 0.00 62 1012.4
20260505235008 41 330 2.0 6.0 0.00 0.00 0.00 62 1012.4
20260505234507 41 25 3.0 7.0 0.00 0.00 0.00 62 1012.5
20260505234008 41 350 2.0 8.0 0.00 0.00 0.00 62 1012.4
20260505233011 41 348 3.0 9.0 0.00 0.00 0.00 62 1012.4
20260505232507 41 334 6.0 12.0 0.00 0.00 0.00 62 1012.4
20260505232008 41 332 5.0 10.0 0.00 0.00 0.00 62 1012.4
20260505231507 42 345 5.0 10.0 0.00 0.00 0.00 62 1012.5
20260505230507 42 325 6.0 12.0 0.00 0.00 0.00 62 1012.4
20260505225508 42 323 5.0 9.0 0.00 0.00 0.00 62 1012.5
20260505225007 42 327 3.0 8.0 0.00 0.00 0.00 62 1012.4
20260505224508 42 290 2.0 7.0 0.00 0.00 0.00 61 1012.5
20260505224007 42 325 5.0 12.0 0.00 0.00 0.00 61 1012.4
20260505223507 42 322 6.0 9.0 0.00 0.00 0.00 61 1012.4
20260505223011 42 325 5.0 9.0 0.00 0.00 0.00 61 1012.6
20260505222507 42 321 2.0 13.0 0.00 0.00 0.00 61 1012.6
20260505222008 42 336 3.0 9.0 0.00 0.00 0.00 61 1012.3
20260505221507 42 342 5.0 10.0 0.00 0.00 0.00 61 1012.3
20260505221007 42 335 3.0 10.0 0.00 0.00 0.00 61 1012.5
20260505220012 42 338 7.0 13.0 0.00 0.00 0.00 60 1012.3
20260505215507 42 328 5.0 12.0 0.00 0.00 0.00 60 1012.5
20260505215008 42 327 6.0 13.0 0.00 0.00 0.00 60 1012.5
20260505214507 42 326 5.0 13.0 0.00 0.00 0.00 60 1012.5
20260505214007 43 327 7.0 12.0 0.00 0.00 0.00 60 1012.4
20260505213507 43 326 7.0 13.0 0.00 0.00 0.00 60 1012.3
20260505213011 43 335 7.0 13.0 0.00 0.00 0.00 60 1012.4
20260505212508 43 331 5.0 12.0 0.00 0.00 0.00 60 1012.4
20260505212008 43 318 7.0 12.0 0.00 0.00 0.00 60 1012.4
20260505211008 43 326 5.0 13.0 0.00 0.00 0.00 62 1012.5
20260505210507 43 324 6.0 10.0 0.00 0.00 0.00 62 1012.4
20260505210011 43 324 6.0 10.0 0.00 0.00 0.00 62 1012.3
20260505205508 43 322 7.0 10.0 0.00 0.00 0.00 62 1012.2
20260505205007 43 319 6.0 9.0 0.00 0.00 0.00 62 1012.2
20260505204508 43 319 7.0 12.0 0.00 0.00 0.00 63 1012.2
20260505204007 44 318 8.0 10.0 0.00 0.00 0.00 63 1012.1
20260505203507 44 323 9.0 12.0 0.00 0.00 0.00 63 1012.0
20260505203011 44 318 8.0 12.0 0.00 0.00 0.00 63 1012.1
20260505202507 44 313 9.0 13.0 0.00 0.00 0.00 63 1012.1
20260505202008 44 311 9.0 13.0 0.00 0.00 0.00 63 1012.0
20260505201008 44 319 12.0 15.0 0.00 0.00 0.00 64 1011.8
20260505200507 44 318 11.0 16.0 0.00 0.00 0.00 64 1011.8
20260505200011 44 316 10.0 15.0 0.00 0.00 0.00 65 1011.7
20260505195507 44 321 10.0 15.0 0.00 0.00 0.00 65 1011.6
20260505195007 44 319 10.0 16.0 0.00 0.00 0.00 65 1011.7
20260505194507 44 317 12.0 16.0 0.00 0.00 0.00 66 1011.7
20260505194007 44 314 11.0 16.0 0.00 0.00 0.00 65 1011.6
20260505193507 44 315 10.0 17.0 0.00 0.00 0.00 65 1011.6
20260505193011 44 316 12.0 16.0 0.00 0.00 0.00 65 1011.6
20260505192007 44 311 11.0 16.0 0.00 0.00 0.00 64 1011.6
20260505191507 45 311 12.0 17.0 0.00 0.00 0.00 64 1011.7
20260505190011 45 312 12.0 18.0 0.00 0.00 0.00 63 1011.4
20260505185007 45 314 12.0 20.0 0.00 0.00 0.00 63 1011.3
20260505184507 45 318 13.0 17.0 0.00 0.00 0.00 64 1011.2
20260505184007 45 311 12.0 16.0 0.00 0.00 0.00 63 1011.3
20260505183507 45 302 10.0 16.0 0.00 0.00 0.00 63 1011.3
20260505182507 46 300 13.0 20.0 0.00 0.00 0.00 63 1011.2
20260505181507 46 304 15.0 22.0 0.00 0.00 0.00 64 1011.2
20260505181007 46 309 14.0 20.0 0.00 0.00 0.00 64 1011.3
20260505180507 46 304 12.0 20.0 0.00 0.00 0.00 64 1011.3
20260505180011 46 311 12.0 21.0 0.00 0.00 0.00 65 1011.2
20260505175507 46 296 14.0 18.0 0.00 0.00 0.00 65 1011.3
20260505175007 46 299 15.0 20.0 0.00 0.00 0.00 66 1011.3
20260505174507 46 300 15.0 20.0 0.00 0.00 0.00 67 1011.2
20260505173507 46 301 17.0 23.0 0.00 0.00 0.00 66 1011.2
20260505173011 46 304 18.0 25.0 0.00 0.00 0.00 66 1011.2
20260505172507 46 303 17.0 23.0 0.00 0.00 0.00 65 1011.2
20260505172007 47 291 18.0 24.0 0.00 0.00 0.00 65 1011.2
20260505171507 47 301 14.0 23.0 0.00 0.00 0.00 64 1011.2
20260505171007 47 302 16.0 23.0 0.00 0.00 0.00 64 1011.3
20260505170507 47 301 13.0 21.0 0.00 0.00 0.00 64 1011.3
20260505170010 47 293 14.0 21.0 0.00 0.00 0.00 64 1011.2
20260505165506 47 299 15.0 21.0 0.00 0.00 0.00 64 1011.1